• In Netherlands
  • List of Countries
  • For 7 days
  • Water Temperature
  • Satellite Maps
  • Weather Map
  • Weather Widgets
  • user-avatar
    Login

    Hourly Weather Ashtarak

    Today, 27 July, Thursday

    Time Temperature Precipitation Wind Pressure Humidity
    00:00 +21°C° 0.2 mm 2 mps 657 mmHg 64%
    01:00 +20°C° 0.2 mm 2 mps 657 mmHg 65%
    02:00 +20°C° 0.2 mm 2 mps 657 mmHg 66%
    03:00 +19°C° 0.2 mm 2 mps 657 mmHg 67%
    04:00 +21°C° 0.1 mm 1 mps 657 mmHg 67%
    05:00 +21°C° 0.1 mm 1 mps 657 mmHg 66%
    06:00 +22°C° 0.1 mm 1 mps 657 mmHg 66%
    07:00 +24°C° 0 mm 1 mps 658 mmHg 58%
    08:00 +26°C° 0 mm 1 mps 658 mmHg 51%
    09:00 +28°C° 0 mm 1 mps 658 mmHg 44%
    10:00 +29°C° 0 mm 1 mps 658 mmHg 40%
    11:00 +31°C° 0 mm 2 mps 658 mmHg 36%
    12:00 +32°C° 0 mm 2 mps 658 mmHg 32%
    13:00 +34°C° 0 mm 2 mps 658 mmHg 30%
    14:00 +34°C° 0 mm 2 mps 658 mmHg 28%
    15:00 +35°C° 0 mm 2 mps 658 mmHg 26%
    16:00 +34°C° 0 mm 2 mps 658 mmHg 29%
    17:00 +32°C° 0 mm 2 mps 658 mmHg 32%
    18:00 +32°C° 0 mm 2 mps 657 mmHg 35%
    19:00 +29°C° 0 mm 2 mps 657 mmHg 43%
    20:00 +27°C° 0 mm 2 mps 657 mmHg 51%
    21:00 +25°C° 0 mm 3 mps 657 mmHg 60%
    22:00 +24°C° 0.1 mm 2 mps 657 mmHg 62%
    23:00 +24°C° 0.1 mm 2 mps 658 mmHg 64%

    Tomorrow, 28 July, Friday

    Time Temperature Precipitation Wind Pressure Humidity
    00:00 +23°C° 0.1 mm 2 mps 658 mmHg 67%
    01:00 +23°C° 0 mm 2 mps 658 mmHg 67%
    02:00 +21°C° 0 mm 2 mps 658 mmHg 67%
    03:00 +21°C° 0 mm 2 mps 658 mmHg 67%
    04:00 +21°C° 0 mm 2 mps 658 mmHg 64%
    05:00 +23°C° 0 mm 1 mps 658 mmHg 62%
    06:00 +23°C° 0 mm 1 mps 658 mmHg 60%
    07:00 +25°C° 0 mm 1 mps 659 mmHg 51%
    08:00 +28°C° 0 mm 2 mps 659 mmHg 42%
    09:00 +30°C° 0 mm 2 mps 659 mmHg 33%
    10:00 +32°C° 0 mm 2 mps 659 mmHg 30%
    11:00 +34°C° 0 mm 2 mps 659 mmHg 27%
    12:00 +36°C° 0 mm 3 mps 659 mmHg 24%
    13:00 +36°C° 0 mm 3 mps 659 mmHg 22%
    14:00 +37°C° 0 mm 3 mps 659 mmHg 21%
    15:00 +37°C° 0 mm 3 mps 658 mmHg 20%
    16:00 +36°C° 0 mm 3 mps 658 mmHg 23%
    17:00 +35°C° 0 mm 2 mps 658 mmHg 27%
    18:00 +34°C° 0 mm 2 mps 657 mmHg 30%
    19:00 +31°C° 0 mm 2 mps 657 mmHg 35%
    20:00 +29°C° 0 mm 2 mps 657 mmHg 41%
    21:00 +26°C° 0 mm 2 mps 658 mmHg 46%
    22:00 +26°C° 0 mm 2 mps 658 mmHg 48%
    23:00 +25°C° 0 mm 2 mps 658 mmHg 51%

    Day after tomorrow, 29 July, Saturday

    Time Temperature Precipitation Wind Pressure Humidity
    00:00 +24°C° 0 mm 1 mps 658 mmHg 53%
    01:00 +24°C° 0 mm 1 mps 658 mmHg 53%
    02:00 +23°C° 0 mm 1 mps 658 mmHg 53%
    03:00 +23°C° 0 mm 1 mps 658 mmHg 54%
    04:00 +23°C° 0 mm 1 mps 658 mmHg 51%
    05:00 +23°C° 0 mm 1 mps 658 mmHg 49%
    06:00 +24°C° 0 mm 1 mps 658 mmHg 46%
    07:00 +26°C° 0 mm 1 mps 659 mmHg 38%
    08:00 +29°C° 0 mm 1 mps 659 mmHg 30%
    09:00 +31°C° 0 mm 2 mps 660 mmHg 22%
    10:00 +32°C° 0 mm 2 mps 660 mmHg 20%
    11:00 +35°C° 0 mm 2 mps 660 mmHg 18%
    12:00 +36°C° 0 mm 3 mps 660 mmHg 17%
    13:00 +36°C° 0 mm 3 mps 659 mmHg 16%
    14:00 +37°C° 0 mm 3 mps 659 mmHg 16%
    15:00 +37°C° 0 mm 3 mps 659 mmHg 15%
    16:00 +36°C° 0 mm 3 mps 659 mmHg 19%
    17:00 +35°C° 0 mm 2 mps 659 mmHg 23%
    18:00 +34°C° 0 mm 2 mps 658 mmHg 27%
    19:00 +30°C° 0 mm 2 mps 659 mmHg 36%
    20:00 +28°C° 0 mm 3 mps 659 mmHg 46%
    21:00 +25°C° 0 mm 3 mps 659 mmHg 56%
    22:00 +24°C° 0 mm 3 mps 659 mmHg 61%
    23:00 +22°C° 0 mm 3 mps 659 mmHg 67%

    30 July, Sunday

    Time Temperature Precipitation Wind Pressure Humidity
    00:00 +21°C° 0 mm 3 mps 659 mmHg 72%
    01:00 +21°C° 0 mm 3 mps 659 mmHg 73%
    02:00 +20°C° 0 mm 2 mps 659 mmHg 75%
    03:00 +20°C° 0 mm 2 mps 659 mmHg 76%
    04:00 +20°C° 0 mm 2 mps 659 mmHg 75%
    05:00 +20°C° 0 mm 2 mps 659 mmHg 74%
    06:00 +21°C° 0 mm 2 mps 660 mmHg 73%
    07:00 +24°C° 0 mm 2 mps 660 mmHg 64%
    08:00 +26°C° 0 mm 2 mps 660 mmHg 54%
    09:00 +28°C° 0 mm 2 mps 661 mmHg 45%
    10:00 +30°C° 0 mm 2 mps 661 mmHg 41%
    11:00 +31°C° 0 mm 2 mps 661 mmHg 37%
    12:00 +32°C° 0 mm 2 mps 661 mmHg 33%
    13:00 +34°C° 0 mm 3 mps 660 mmHg 32%
    14:00 +34°C° 0 mm 3 mps 660 mmHg 31%
    15:00 +35°C° 0 mm 3 mps 660 mmHg 31%
    16:00 +34°C° 0.1 mm 4 mps 660 mmHg 34%
    17:00 +33°C° 0.1 mm 4 mps 660 mmHg 38%
    18:00 +32°C° 0.1 mm 5 mps 659 mmHg 42%
    19:00 +29°C° 0.1 mm 4 mps 660 mmHg 46%
    20:00 +27°C° 0.1 mm 4 mps 660 mmHg 50%
    21:00 +25°C° 0.1 mm 3 mps 660 mmHg 54%
    22:00 +24°C° 0 mm 3 mps 660 mmHg 56%
    23:00 +24°C° 0 mm 3 mps 660 mmHg 58%

    31 July, Monday

    Time Temperature Precipitation Wind Pressure Humidity
    00:00 +22°C° 0 mm 3 mps 660 mmHg 59%
    01:00 +21°C° 0 mm 3 mps 660 mmHg 63%
    02:00 +21°C° 0 mm 3 mps 660 mmHg 67%
    03:00 +20°C° 0 mm 3 mps 660 mmHg 70%
    04:00 +21°C° 0 mm 2 mps 660 mmHg 70%
    05:00 +21°C° 0 mm 2 mps 660 mmHg 70%
    06:00 +21°C° 0 mm 2 mps 661 mmHg 70%
    07:00 +24°C° 0 mm 2 mps 661 mmHg 62%
    08:00 +26°C° 0 mm 2 mps 661 mmHg 54%
    09:00 +29°C° 0 mm 2 mps 662 mmHg 46%
    10:00 +30°C° 0 mm 2 mps 662 mmHg 43%
    11:00 +31°C° 0 mm 2 mps 661 mmHg 39%
    12:00 +34°C° 0 mm 3 mps 661 mmHg 35%
    13:00 +34°C° 0 mm 3 mps 661 mmHg 35%
    14:00 +35°C° 0 mm 3 mps 661 mmHg 35%
    15:00 +35°C° 0 mm 3 mps 661 mmHg 34%
    16:00 +34°C° 0.3 mm 4 mps 660 mmHg 38%
    17:00 +33°C° 0.3 mm 4 mps 660 mmHg 42%
    18:00 +32°C° 0.3 mm 4 mps 660 mmHg 45%
    19:00 +29°C° 0.3 mm 4 mps 660 mmHg 52%
    20:00 +27°C° 0.3 mm 4 mps 661 mmHg 58%
    21:00 +25°C° 0.3 mm 3 mps 661 mmHg 64%
    22:00 +24°C° 0.1 mm 3 mps 661 mmHg 66%
    23:00 +24°C° 0.1 mm 3 mps 661 mmHg 68%

    1 August, Tuesday

    Time Temperature Precipitation Wind Pressure Humidity
    00:00 +22°C° 0.1 mm 3 mps 661 mmHg 70%
    01:00 +22°C° 0 mm 3 mps 661 mmHg 71%
    02:00 +21°C° 0 mm 3 mps 661 mmHg 72%
    03:00 +21°C° 0 mm 2 mps 661 mmHg 73%
    04:00 +21°C° 0 mm 2 mps 661 mmHg 72%
    05:00 +21°C° 0 mm 2 mps 661 mmHg 71%
    06:00 +21°C° 0 mm 2 mps 662 mmHg 70%
    07:00 +24°C° 0 mm 2 mps 662 mmHg 63%
    08:00 +27°C° 0 mm 2 mps 662 mmHg 57%
    09:00 +29°C° 0 mm 2 mps 662 mmHg 50%
    10:00 +30°C° 0.1 mm 2 mps 662 mmHg 46%
    11:00 +31°C° 0.1 mm 2 mps 662 mmHg 42%
    12:00 +34°C° 0.1 mm 3 mps 662 mmHg 38%
    13:00 +34°C° 0.1 mm 3 mps 662 mmHg 37%
    14:00 +35°C° 0.1 mm 3 mps 661 mmHg 36%
    15:00 +35°C° 0.1 mm 3 mps 661 mmHg 36%
    16:00 +34°C° 0.2 mm 4 mps 661 mmHg 39%
    17:00 +33°C° 0.2 mm 4 mps 661 mmHg 43%
    18:00 +32°C° 0.2 mm 4 mps 660 mmHg 46%
    19:00 +29°C° 0.2 mm 4 mps 660 mmHg 52%
    20:00 +27°C° 0.2 mm 4 mps 660 mmHg 59%
    21:00 +25°C° 0.2 mm 3 mps 661 mmHg 65%
    22:00 +24°C° 0 mm 3 mps 661 mmHg 66%
    23:00 +24°C° 0 mm 3 mps 661 mmHg 68%
    Show more